Starlink 31619

operational
NORAD ID: 59531 Int'l Des: 2024-073 Owner: SPXS Country: US Constellation: starlink
LEOCIRCULAR

Starlink 31619について

説明を読み込み中...

リアルタイム位置

3D地球を読み込み中...

次回通過

高度履歴

Altitude vs Time

uPlot chart will show altitude changes over time

軌道要素

1 59531U 24073W 25351.27917756 .00000189 00000-0 16411-4 0 9994
2 59531 43.0019 63.2894 0001758 281.4572 78.6082 15.27584615 94697
Epoch: Dec 17, 2025 • Age: 9 hours

現在のステータス

高度 486.4 km
速度 7.62 km/s
衛星直下点 -17.57°S, 57.21°W
打ち上げ日 Apr 17, 2024
運用期間 1.6 years
タイプ internet

技術仕様

分類 Payload
質量 730.00 kg
乾燥質量 700.00 kg
総質量 730.00 kg
長さ 0.30 m
直径 4.10 m
スパン 29.00 m
形状 Box + pan
製造者 SPXS
バスタイプ Starlink V2M
フェーズステータス In Orbit
所有者/国 SPXS/US

大規模コンステレーション

Loading constellations...